Data start date =,1/1/1930
Data end date/time =,5/6/2024 12:00
Vertical Datum =,NGVD29
""
Date/Time,MissHW_Leech
,Elev
UTC,ft
,Ave
1/2/1930 12:00,1293.04
1/3/1930 12:00,1293.05
1/4/1930 12:00,1292.98
1/5/1930 12:00,1292.98
1/6/1930 12:00,1292.98
1/7/1930 12:00,1292.99
1/8/1930 12:00,1292.95
1/9/1930 12:00,1292.95
1/10/1930 12:00,1293.00
1/11/1930 12:00,1293.02
1/12/1930 12:00,1293.02
1/13/1930 12:00,1293.02
1/14/1930 12:00,1293.03
1/15/1930 12:00,1293.03
1/16/1930 12:00,1293.02
1/17/1930 12:00,1293.03
1/18/1930 12:00,1293.03
1/19/1930 12:00,1293.04
1/20/1930 12:00,1293.04
1/21/1930 12:00,1293.04
1/22/1930 12:00,1293.05
1/23/1930 12:00,1293.05
1/24/1930 12:00,1293.05
1/25/1930 12:00,1293.06
1/26/1930 12:00,1293.06
1/27/1930 12:00,1293.05
1/28/1930 12:00,1293.06
1/29/1930 12:00,1293.07
1/30/1930 12:00,1293.07
1/31/1930 12:00,1293.07
2/1/1930 12:00,1293.07
2/2/1930 12:00,1293.07
2/3/1930 12:00,1293.07
2/4/1930 12:00,1293.07
2/5/1930 12:00,1293.08
2/6/1930 12:00,1293.09
2/7/1930 12:00,1293.11
2/8/1930 12:00,1293.11
2/9/1930 12:00,1293.11
2/10/1930 12:00,1293.11
2/11/1930 12:00,1293.12
2/12/1930 12:00,1293.12
2/13/1930 12:00,1293.13
2/14/1930 12:00,1293.13
2/15/1930 12:00,1293.14
2/16/1930 12:00,1293.14
2/17/1930 12:00,1293.14
2/18/1930 12:00,1293.14
2/19/1930 12:00,1293.14
2/20/1930 12:00,1293.15
2/21/1930 12:00,1293.15
2/22/1930 12:00,1293.16
2/23/1930 12:00,1293.15
2/24/1930 12:00,1293.19
2/25/1930 12:00,1293.19
2/26/1930 12:00,1293.19
2/27/1930 12:00,1293.19
2/28/1930 12:00,1293.22
3/1/1930 12:00,1293.23
3/2/1930 12:00,1293.25
3/3/1930 12:00,1293.26
3/4/1930 12:00,1293.27
3/5/1930 12:00,1293.27
3/6/1930 12:00,1293.28
3/7/1930 12:00,1293.30
3/8/1930 12:00,1293.31
3/9/1930 12:00,1293.38
3/10/1930 12:00,1293.40
3/11/1930 12:00,1293.42
3/12/1930 12:00,1293.42
3/13/1930 12:00,1293.42
3/14/1930 12:00,1293.39
3/15/1930 12:00,1293.40
3/16/1930 12:00,1293.40
3/17/1930 12:00,1293.40
3/18/1930 12:00,1293.40
3/19/1930 12:00,1293.39
3/20/1930 12:00,1293.40
3/21/1930 12:00,1293.40
3/22/1930 12:00,1293.40
3/23/1930 12:00,1293.40
3/24/1930 12:00,1293.40
3/25/1930 12:00,1293.39
3/26/1930 12:00,1293.39
3/27/1930 12:00,1293.47
3/28/1930 12:00,1293.44
3/29/1930 12:00,1293.47
3/30/1930 12:00,1293.48
3/31/1930 12:00,1293.48
4/1/1930 12:00,1293.47
4/2/1930 12:00,1293.46
4/3/1930 12:00,1293.42
4/4/1930 12:00,1293.42
4/5/1930 12:00,1293.48
4/6/1930 12:00,1293.47
4/7/1930 12:00,1293.48
4/8/1930 12:00,1293.45
4/9/1930 12:00,1293.47
4/10/1930 12:00,1293.49
4/11/1930 12:00,1293.49
4/12/1930 12:00,1293.49
4/13/1930 12:00,1293.50
4/14/1930 12:00,1293.49
4/15/1930 12:00,1293.41
4/16/1930 12:00,1293.44
4/17/1930 12:00,1293.50
4/18/1930 12:00,1293.60
4/19/1930 12:00,1293.50
4/20/1930 12:00,1293.51
4/21/1930 12:00,1293.64
4/22/1930 12:00,1293.60
4/23/1930 12:00,1293.53
4/24/1930 12:00,1293.53
4/25/1930 12:00,1293.53
4/26/1930 12:00,1293.52
4/27/1930 12:00,1293.50
4/28/1930 12:00,1293.50
4/29/1930 12:00,1293.53
4/30/1930 12:00,1293.53
5/1/1930 12:00,1293.63
5/2/1930 12:00,1293.50
5/3/1930 12:00,1293.37
5/4/1930 12:00,1293.23
5/5/1930 12:00,1293.43
5/6/1930 12:00,1293.25
5/7/1930 12:00,1293.12
5/8/1930 12:00,1293.31
5/9/1930 12:00,1293.32
5/10/1930 12:00,1293.69
5/11/1930 12:00,1293.80
5/12/1930 12:00,1293.80
5/13/1930 12:00,1293.89
5/14/1930 12:00,1293.90
5/15/1930 12:00,1293.96
5/16/1930 12:00,1294.03
5/17/1930 12:00,1293.96
5/18/1930 12:00,1293.90
5/19/1930 12:00,1293.97
5/20/1930 12:00,1293.97
5/21/1930 12:00,1294.00
5/22/1930 12:00,1294.05
5/23/1930 12:00,1294.10
5/24/1930 12:00,1293.98
5/25/1930 12:00,1293.78
5/26/1930 12:00,1293.65
5/27/1930 12:00,1293.84
5/28/1930 12:00,1293.94
5/29/1930 12:00,1293.83
5/30/1930 12:00,1293.82
5/31/1930 12:00,1293.92
6/1/1930 12:00,1293.92
6/2/1930 12:00,1294.07
6/3/1930 12:00,1293.89
6/4/1930 12:00,1293.87
6/5/1930 12:00,1293.98
6/6/1930 12:00,1293.90
6/7/1930 12:00,1293.89
6/8/1930 12:00,1293.85
6/9/1930 12:00,1293.90
6/10/1930 12:00,1293.91
6/11/1930 12:00,1293.92
6/12/1930 12:00,1293.81
6/13/1930 12:00,1293.94
6/14/1930 12:00,1294.04
6/15/1930 12:00,1293.94
6/16/1930 12:00,1293.92
6/17/1930 12:00,1293.90
6/18/1930 12:00,1293.88
6/19/1930 12:00,1293.88
6/20/1930 12:00,1293.87
6/21/1930 12:00,1293.90
6/22/1930 12:00,1293.95
6/23/1930 12:00,1293.96
6/24/1930 12:00,1294.03
6/25/1930 12:00,1293.88
6/26/1930 12:00,1293.92
6/27/1930 12:00,1293.90
6/28/1930 12:00,1293.90
6/29/1930 12:00,1293.90
6/30/1930 12:00,1293.88
7/1/1930 12:00,1293.84
7/2/1930 12:00,1293.81
7/3/1930 12:00,1293.79
7/4/1930 12:00,1293.80
7/5/1930 12:00,1293.78
7/6/1930 12:00,1293.74
7/7/1930 12:00,1293.74
7/8/1930 12:00,1293.70
7/9/1930 12:00,1293.72
7/10/1930 12:00,1293.72
7/11/1930 12:00,1293.65
7/12/1930 12:00,1293.58
7/13/1930 12:00,1293.57
7/14/1930 12:00,1293.57
7/15/1930 12:00,1293.59
7/16/1930 12:00,1293.51
7/17/1930 12:00,1293.35
7/18/1930 12:00,1293.30
7/19/1930 12:00,1293.25
7/20/1930 12:00,1293.23
7/21/1930 12:00,1293.30
7/22/1930 12:00,1293.23
7/23/1930 12:00,1293.22
7/24/1930 12:00,1293.22
7/25/1930 12:00,1293.15
7/26/1930 12:00,1293.10
7/27/1930 12:00,1293.11
7/28/1930 12:00,1293.10
7/29/1930 12:00,1293.07
7/30/1930 12:00,1293.07
7/31/1930 12:00,1293.04
8/1/1930 12:00,1293.00
8/2/1930 12:00,1292.90
8/3/1930 12:00,1292.88
8/4/1930 12:00,1292.88
8/5/1930 12:00,1292.82
8/6/1930 12:00,1292.80
8/7/1930 12:00,1292.73
8/8/1930 12:00,1292.75
8/9/1930 12:00,1292.72
8/10/1930 12:00,1292.65
8/11/1930 12:00,1292.64
8/12/1930 12:00,1292.53
8/13/1930 12:00,1292.35
8/14/1930 12:00,1292.30
8/15/1930 12:00,1292.17
8/16/1930 12:00,1292.00
8/17/1930 12:00,1291.89
8/18/1930 12:00,1291.80
8/19/1930 12:00,1291.80
8/20/1930 12:00,1291.80
8/21/1930 12:00,1291.80
8/22/1930 12:00,1291.80
8/23/1930 12:00,1291.80
8/24/1930 12:00,1291.80
8/25/1930 12:00,1291.80
8/26/1930 12:00,1291.80
8/27/1930 12:00,1291.80
8/28/1930 12:00,1291.80
8/29/1930 12:00,1291.80
8/30/1930 12:00,1291.80
8/31/1930 12:00,1291.80
9/1/1930 12:00,1291.80
9/2/1930 12:00,1291.79
9/3/1930 12:00,1291.79
9/4/1930 12:00,1291.80
9/5/1930 12:00,1291.76
9/6/1930 12:00,1291.74
9/7/1930 12:00,1291.76
9/8/1930 12:00,1291.73
9/9/1930 12:00,1291.75
9/10/1930 12:00,1291.75
9/11/1930 12:00,1291.75
9/12/1930 12:00,1291.75
9/13/1930 12:00,1291.77
9/14/1930 12:00,1291.77
9/15/1930 12:00,1291.70
9/16/1930 12:00,1291.70
9/17/1930 12:00,1291.77
9/18/1930 12:00,1291.73
9/19/1930 12:00,1291.73
9/20/1930 12:00,1291.75
9/21/1930 12:00,1291.73
9/22/1930 12:00,1291.70
9/23/1930 12:00,1291.68
9/24/1930 12:00,1291.70
9/25/1930 12:00,1291.70
9/26/1930 12:00,1291.70
9/27/1930 12:00,1291.70
9/28/1930 12:00,1291.68
9/29/1930 12:00,1291.66
9/30/1930 12:00,1291.66
10/1/1930 12:00,1291.62
10/2/1930 12:00,1291.60
10/3/1930 12:00,1291.60
10/4/1930 12:00,1291.60
10/5/1930 12:00,1291.60
10/6/1930 12:00,1291.65
10/7/1930 12:00,1291.65
10/8/1930 12:00,1291.65
10/9/1930 12:00,1291.67
10/10/1930 12:00,1291.67
10/11/1930 12:00,1291.67
10/12/1930 12:00,1291.61
10/13/1930 12:00,1291.70
10/14/1930 12:00,1291.70
10/15/1930 12:00,1291.66
10/16/1930 12:00,1291.70
10/17/1930 12:00,1291.70
10/18/1930 12:00,1291.75
10/19/1930 12:00,1291.75
10/20/1930 12:00,1291.74
10/21/1930 12:00,1291.52
10/22/1930 12:00,1291.61
10/23/1930 12:00,1291.52
10/24/1930 12:00,1291.61
10/25/1930 12:00,1291.61
10/26/1930 12:00,1291.61
10/27/1930 12:00,1291.62
10/28/1930 12:00,1291.63
10/29/1930 12:00,1291.61
10/30/1930 12:00,1291.62
10/31/1930 12:00,1291.62
11/1/1930 12:00,1291.62
11/2/1930 12:00,1291.60
11/3/1930 12:00,1291.62
11/4/1930 12:00,1291.94
11/5/1930 12:00,1292.05
11/6/1930 12:00,1291.95
11/7/1930 12:00,1292.00
11/8/1930 12:00,1291.95
11/9/1930 12:00,1291.95
11/10/1930 12:00,1291.92
11/11/1930 12:00,1291.94
11/12/1930 12:00,1292.00
11/13/1930 12:00,1292.90
11/14/1930 12:00,1292.90
11/15/1930 12:00,1292.91
11/16/1930 12:00,1292.87
11/17/1930 12:00,1292.05
11/18/1930 12:00,1291.99
11/19/1930 12:00,1291.99
11/20/1930 12:00,1291.90
11/21/1930 12:00,1292.30
11/22/1930 12:00,1292.25
11/23/1930 12:00,1292.29
11/24/1930 12:00,1292.30
11/25/1930 12:00,1292.30
11/26/1930 12:00,1292.29
11/27/1930 12:00,1292.26
11/28/1930 12:00,1292.25
11/29/1930 12:00,1292.12
11/30/1930 12:00,1292.10
12/1/1930 12:00,1292.10
12/2/1930 12:00,1292.20
12/3/1930 12:00,1292.11
12/4/1930 12:00,1292.15
12/5/1930 12:00,1292.12
12/6/1930 12:00,1292.14
12/7/1930 12:00,1292.15
12/8/1930 12:00,1292.18
12/9/1930 12:00,1292.17
12/10/1930 12:00,1292.17
12/11/1930 12:00,1292.17
12/12/1930 12:00,1292.19
12/13/1930 12:00,1292.19
12/14/1930 12:00,1292.19
12/15/1930 12:00,1292.19
12/16/1930 12:00,1292.20
12/17/1930 12:00,1292.19
12/18/1930 12:00,1292.19
12/19/1930 12:00,1292.19
12/20/1930 12:00,1292.18
12/21/1930 12:00,1292.19
12/22/1930 12:00,1292.19
12/23/1930 12:00,1292.18
12/24/1930 12:00,1292.19
12/25/1930 12:00,1292.19
12/26/1930 12:00,1292.19
12/27/1930 12:00,1292.19
12/28/1930 12:00,1292.20
12/29/1930 12:00,1292.20
12/30/1930 12:00,1292.18
12/31/1930 12:00,1292.18
1/1/1931 12:00,1292.17
1/2/1931 12:00,1292.17
1/3/1931 12:00,1292.17
1/4/1931 12:00,1292.17
1/5/1931 12:00,1292.18
1/6/1931 12:00,1292.19
1/7/1931 12:00,1292.19
1/8/1931 12:00,1292.20
1/9/1931 12:00,1292.20
1/10/1931 12:00,1292.20
1/11/1931 12:00,1292.21
1/12/1931 12:00,1292.21
1/13/1931 12:00,1292.21
1/14/1931 12:00,1292.22
1/15/1931 12:00,1292.22
1/16/1931 12:00,1292.22
1/17/1931 12:00,1292.23
1/18/1931 12:00,1292.30
1/19/1931 12:00,1292.23
1/20/1931 12:00,1292.28
1/21/1931 12:00,1292.30
1/22/1931 12:00,1292.28
1/23/1931 12:00,1292.28
1/24/1931 12:00,1292.22
1/25/1931 12:00,1292.20
1/26/1931 12:00,1292.23
1/27/1931 12:00,1292.25
1/28/1931 12:00,1292.26
1/29/1931 12:00,1292.26
1/30/1931 12:00,1292.30
1/31/1931 12:00,1292.30
2/1/1931 12:00,1292.36
2/2/1931 12:00,1292.38
2/3/1931 12:00,1292.39
2/4/1931 12:00,1292.35
2/5/1931 12:00,1292.39
2/6/1931 12:00,1292.35
2/7/1931 12:00,1292.36
2/8/1931 12:00,1292.39
2/9/1931 12:00,1292.38
2/10/1931 12:00,1292.38
2/11/1931 12:00,1292.35
2/12/1931 12:00,1292.35
2/13/1931 12:00,1292.35
2/14/1931 12:00,1292.35
2/15/1931 12:00,1292.34
2/16/1931 12:00,1292.34
2/17/1931 12:00,1292.36
2/18/1931 12:00,1292.39
2/19/1931 12:00,1292.30
2/20/1931 12:00,1292.30
2/21/1931 12:00,1292.28
2/22/1931 12:00,1292.28
2/23/1931 12:00,1292.28
2/24/1931 12:00,1292.30
2/25/1931 12:00,1292.30
2/26/1931 12:00,1292.30
2/27/1931 12:00,1292.29
2/28/1931 12:00,1292.29
3/1/1931 12:00,1292.30
3/2/1931 12:00,1292.30
3/3/1931 12:00,1292.29
3/4/1931 12:00,1292.30
3/5/1931 12:00,1292.30
3/6/1931 12:00,1292.30
3/7/1931 12:00,1292.29
3/8/1931 12:00,1292.30
3/9/1931 12:00,1292.30
3/10/1931 12:00,1292.28
3/11/1931 12:00,1292.28
3/12/1931 12:00,1292.24
3/13/1931 12:00,1292.25
3/14/1931 12:00,1292.30
3/15/1931 12:00,1292.33
3/16/1931 12:00,1292.30
3/17/1931 12:00,1292.29
3/18/1931 12:00,1292.31
3/19/1931 12:00,1292.30
3/20/1931 12:00,1292.29
3/21/1931 12:00,1292.32
3/22/1931 12:00,1292.35
3/23/1931 12:00,1292.32
3/24/1931 12:00,1292.40
3/25/1931 12:00,1292.40
3/26/1931 12:00,1292.40
3/27/1931 12:00,1292.40
3/28/1931 12:00,1292.40
3/29/1931 12:00,1292.42
3/30/1931 12:00,1292.43
3/31/1931 12:00,1292.42
4/1/1931 12:00,1292.40
4/2/1931 12:00,1292.41
4/3/1931 12:00,1292.47
4/4/1931 12:00,1292.47
4/5/1931 12:00,1292.44
4/6/1931 12:00,1292.41
4/7/1931 12:00,1292.42
4/8/1931 12:00,1292.47
4/9/1931 12:00,1292.49
4/10/1931 12:00,1292.65
4/11/1931 12:00,1292.48
4/12/1931 12:00,1292.45
4/13/1931 12:00,1292.45
4/14/1931 12:00,1292.39
4/15/1931 12:00,1292.44
4/16/1931 12:00,1292.49
4/17/1931 12:00,1292.50
4/18/1931 12:00,1292.50
4/19/1931 12:00,1292.51
4/20/1931 12:00,1292.53
4/21/1931 12:00,1292.53
4/22/1931 12:00,1292.45
4/23/1931 12:00,1292.58
4/24/1931 12:00,1292.50
4/25/1931 12:00,1292.50
4/26/1931 12:00,1292.50
4/27/1931 12:00,1292.50
4/28/1931 12:00,1292.52
4/29/1931 12:00,1292.42
4/30/1931 12:00,1292.47
5/1/1931 12:00,1292.52
5/2/1931 12:00,1292.55
5/3/1931 12:00,1292.52
5/4/1931 12:00,1292.50
5/5/1931 12:00,1292.52
5/6/1931 12:00,1292.47
5/7/1931 12:00,1292.41
5/8/1931 12:00,1292.45
5/9/1931 12:00,1292.40
5/10/1931 12:00,1292.37
5/11/1931 12:00,1292.40
5/12/1931 12:00,1292.50
5/13/1931 12:00,1292.49
5/14/1931 12:00,1292.49
5/15/1931 12:00,1292.51
5/16/1931 12:00,1292.35
5/17/1931 12:00,1292.40
5/18/1931 12:00,1292.55
5/19/1931 12:00,1292.55
5/20/1931 12:00,1292.49
5/21/1931 12:00,1292.50
5/22/1931 12:00,1292.47
5/23/1931 12:00,1292.48
5/24/1931 12:00,1292.47
5/25/1931 12:00,1292.47
5/26/1931 12:00,1292.40
5/27/1931 12:00,1292.47
5/28/1931 12:00,1292.55
5/29/1931 12:00,1292.52
5/30/1931 12:00,1292.48
5/31/1931 12:00,1292.46
6/1/1931 12:00,1292.45
6/2/1931 12:00,1292.40
6/3/1931 12:00,1292.44
6/4/1931 12:00,1292.39
6/5/1931 12:00,1292.50
6/6/1931 12:00,1292.47
6/7/1931 12:00,1292.39
6/8/1931 12:00,1292.42
6/9/1931 12:00,1292.38
6/10/1931 12:00,1292.38
6/11/1931 12:00,1292.40
6/12/1931 12:00,1292.59
6/13/1931 12:00,1292.59
6/14/1931 12:00,1292.59
6/15/1931 12:00,1292.59
6/16/1931 12:00,1292.60
6/17/1931 12:00,1292.50
6/18/1931 12:00,1292.61
6/19/1931 12:00,1292.60
6/20/1931 12:00,1292.59
6/21/1931 12:00,1292.50
6/22/1931 12:00,1292.50
6/23/1931 12:00,1292.54
6/24/1931 12:00,1292.55
6/25/1931 12:00,1292.60
6/26/1931 12:00,1292.60
6/27/1931 12:00,1292.56
6/28/1931 12:00,1292.50
6/29/1931 12:00,1292.62
6/30/1931 12:00,1292.67
7/1/1931 12:00,1292.67
7/2/1931 12:00,1292.67
7/3/1931 12:00,1292.64
7/4/1931 12:00,1292.40
7/5/1931 12:00,1292.68
7/6/1931 12:00,1292.65
7/7/1931 12:00,1292.66
7/8/1931 12:00,1292.60
7/9/1931 12:00,1292.60
7/10/1931 12:00,1292.58
7/11/1931 12:00,1292.52
7/12/1931 12:00,1292.61
7/13/1931 12:00,1292.61
7/14/1931 12:00,1292.60
7/15/1931 12:00,1292.57
7/16/1931 12:00,1292.61
7/17/1931 12:00,1292.61
7/18/1931 12:00,1292.60
7/19/1931 12:00,1292.60
7/20/1931 12:00,1292.60
7/21/1931 12:00,1292.51
7/22/1931 12:00,1292.53
7/23/1931 12:00,1292.49
7/24/1931 12:00,1292.50
7/25/1931 12:00,1292.50
7/26/1931 12:00,1292.48
7/27/1931 12:00,1292.46
7/28/1931 12:00,1292.46
7/29/1931 12:00,1292.40
7/30/1931 12:00,1292.40
7/31/1931 12:00,1292.35
8/1/1931 12:00,1292.30
8/2/1931 12:00,1292.50
8/3/1931 12:00,1292.50
8/4/1931 12:00,1292.46
8/5/1931 12:00,1292.40
8/6/1931 12:00,1292.35
8/7/1931 12:00,1292.33
8/8/1931 12:00,1292.36
8/9/1931 12:00,1292.40
8/10/1931 12:00,1292.35
8/11/1931 12:00,1292.36
8/12/1931 12:00,1292.35
8/13/1931 12:00,1292.30
8/14/1931 12:00,1292.34
8/15/1931 12:00,1292.29
8/16/1931 12:00,1292.29
8/17/1931 12:00,1292.29
8/18/1931 12:00,1292.27
8/19/1931 12:00,1292.26
8/20/1931 12:00,1292.25
8/21/1931 12:00,1292.25
8/22/1931 12:00,1292.26
8/23/1931 12:00,1292.24
8/24/1931 12:00,1292.20
8/25/1931 12:00,1292.35
8/26/1931 12:00,1292.15
8/27/1931 12:00,1292.10
8/28/1931 12:00,1292.18
8/29/1931 12:00,1292.13
8/30/1931 12:00,1292.07
8/31/1931 12:00,1292.01
9/1/1931 12:00,1292.07
9/2/1931 12:00,1292.15
9/3/1931 12:00,1292.04
9/4/1931 12:00,1292.03
9/5/1931 12:00,1292.03
9/6/1931 12:00,1292.00
9/7/1931 12:00,1292.00
9/8/1931 12:00,1291.98
9/9/1931 12:00,1291.95
9/10/1931 12:00,1291.89
9/11/1931 12:00,1291.91
9/12/1931 12:00,1291.89
9/13/1931 12:00,1291.95
9/14/1931 12:00,1291.98
9/15/1931 12:00,1292.00
9/16/1931 12:00,1291.96
9/17/1931 12:00,1292.00
9/18/1931 12:00,1291.97
9/19/1931 12:00,1291.91
9/20/1931 12:00,1291.90
9/21/1931 12:00,1292.05
9/22/1931 12:00,1292.00
9/23/1931 12:00,1291.98
9/24/1931 12:00,1291.90
9/25/1931 12:00,1291.89
9/26/1931 12:00,1291.90
9/27/1931 12:00,1291.89
9/28/1931 12:00,1291.90
9/29/1931 12:00,1291.88
9/30/1931 12:00,1292.00
10/1/1931 12:00,1292.00
10/2/1931 12:00,1292.00
10/3/1931 12:00,1291.96
10/4/1931 12:00,1292.00
10/5/1931 12:00,1291.99
10/6/1931 12:00,1291.95
10/7/1931 12:00,1291.96
10/8/1931 12:00,1291.96
10/9/1931 12:00,1292.05
10/10/1931 12:00,1291.70
10/11/1931 12:00,1291.52
10/12/1931 12:00,1291.10
10/13/1931 12:00,1291.09
10/14/1931 12:00,1291.09
10/15/1931 12:00,1291.09
10/16/1931 12:00,1291.10
10/17/1931 12:00,1291.10
10/18/1931 12:00,1291.10
10/19/1931 12:00,1291.10
10/20/1931 12:00,1291.10
10/21/1931 12:00,1291.09
10/22/1931 12:00,1291.09
10/23/1931 12:00,1291.10
10/24/1931 12:00,1291.10
10/25/1931 12:00,1291.10
10/26/1931 12:00,1291.08
10/27/1931 12:00,1291.07
10/28/1931 12:00,1291.12
10/29/1931 12:00,1291.09
10/30/1931 12:00,1291.10
10/31/1931 12:00,1291.10
11/1/1931 12:00,1291.40
11/2/1931 12:00,1291.80
11/3/1931 12:00,1291.80
11/4/1931 12:00,1291.83
11/5/1931 12:00,1291.85
11/6/1931 12:00,1291.80
11/7/1931 12:00,1291.77
11/8/1931 12:00,1291.75
11/9/1931 12:00,1291.78
11/10/1931 12:00,1291.74
11/11/1931 12:00,1291.72
11/12/1931 12:00,1291.80
11/13/1931 12:00,1291.79
11/14/1931 12:00,1291.70
11/15/1931 12:00,1291.70
11/16/1931 12:00,1291.70
11/17/1931 12:00,1291.75
11/18/1931 12:00,1291.68
11/19/1931 12:00,1291.72
11/20/1931 12:00,1291.70
11/21/1931 12:00,1291.84
11/22/1931 12:00,1291.80
11/23/1931 12:00,1291.86
11/24/1931 12:00,1291.98
11/25/1931 12:00,1291.90
11/26/1931 12:00,1291.88
11/27/1931 12:00,1291.85
11/28/1931 12:00,1291.90
11/29/1931 12:00,1291.86
11/30/1931 12:00,1291.85
12/1/1931 12:00,1291.84
12/2/1931 12:00,1291.80
12/3/1931 12:00,1291.82
12/4/1931 12:00,1291.80
12/5/1931 12:00,1291.80
12/6/1931 12:00,1291.81
12/7/1931 12:00,1291.80
12/8/1931 12:00,1291.80
12/9/1931 12:00,1291.81
12/10/1931 12:00,1291.81
12/11/1931 12:00,1291.81
12/12/1931 12:00,1291.84
12/13/1931 12:00,1291.83
12/14/1931 12:00,1291.82
12/15/1931 12:00,1291.82
12/16/1931 12:00,1291.85
12/17/1931 12:00,1291.86
12/18/1931 12:00,1291.90
12/19/1931 12:00,1291.90
12/20/1931 12:00,1291.90
12/21/1931 12:00,1291.92
12/22/1931 12:00,1291.92
12/23/1931 12:00,1291.95
12/24/1931 12:00,1291.95
12/25/1931 12:00,1291.95
12/26/1931 12:00,1291.95
12/27/1931 12:00,1291.98
12/28/1931 12:00,1291.95
12/29/1931 12:00,1291.92
12/30/1931 12:00,1291.95
12/31/1931 12:00,1291.95
1/1/1932 12:00,1291.95
1/2/1932 12:00,1291.97
1/3/1932 12:00,1291.97
1/4/1932 12:00,1291.97
1/5/1932 12:00,1291.96
1/6/1932 12:00,1291.97
1/7/1932 12:00,1291.99
1/8/1932 12:00,1291.99
1/9/1932 12:00,1291.97
1/10/1932 12:00,1291.98
1/11/1932 12:00,1291.97
1/12/1932 12:00,1291.98
1/13/1932 12:00,1292.00
1/14/1932 12:00,1292.00
1/15/1932 12:00,1291.99
1/16/1932 12:00,1291.98
1/17/1932 12:00,1292.00
1/18/1932 12:00,1292.00
1/19/1932 12:00,1292.00
1/20/1932 12:00,1291.98
1/21/1932 12:00,1292.01
1/22/1932 12:00,1292.01
1/23/1932 12:00,1292.00
1/24/1932 12:00,1292.00
1/25/1932 12:00,1292.01
1/26/1932 12:00,1292.01
1/27/1932 12:00,1292.05
1/28/1932 12:00,1292.05
1/29/1932 12:00,1292.05
1/30/1932 12:00,1292.04
1/31/1932 12:00,1292.05
2/1/1932 12:00,1292.01
2/2/1932 12:00,1292.01
2/3/1932 12:00,1292.02
2/4/1932 12:00,1292.02
2/5/1932 12:00,1292.02
2/6/1932 12:00,1292.02
2/7/1932 12:00,1292.03
2/8/1932 12:00,1292.06
2/9/1932 12:00,1292.06
2/10/1932 12:00,1292.06
2/11/1932 12:00,1292.08
2/12/1932 12:00,1292.08
2/13/1932 12:00,1292.08
2/14/1932 12:00,1292.08
2/15/1932 12:00,1292.07
2/16/1932 12:00,1292.08
2/17/1932 12:00,1292.08
2/18/1932 12:00,1292.08
2/19/1932 12:00,1292.09
2/20/1932 12:00,1292.10
2/21/1932 12:00,1292.10
2/22/1932 12:00,1292.10
2/23/1932 12:00,1292.10
2/24/1932 12:00,1292.09
2/25/1932 12:00,1292.09
2/26/1932 12:00,1292.10
2/27/1932 12:00,1292.11
2/28/1932 12:00,1292.16
2/29/1932 12:00,1292.17
3/1/1932 12:00,1292.10
3/2/1932 12:00,1292.15
3/3/1932 12:00,1292.18
3/4/1932 12:00,1292.20
3/5/1932 12:00,1292.20
3/6/1932 12:00,1292.20
3/7/1932 12:00,1292.18
3/8/1932 12:00,1292.18
3/9/1932 12:00,1292.18
3/10/1932 12:00,1292.16
3/11/1932 12:00,1292.16
3/12/1932 12:00,1292.16
3/13/1932 12:00,1292.17
3/14/1932 12:00,1292.17
3/15/1932 12:00,1292.17
3/16/1932 12:00,1292.18
3/17/1932 12:00,1292.20
3/18/1932 12:00,1292.19
3/19/1932 12:00,1292.19
3/20/1932 12:00,1292.18
3/21/1932 12:00,1292.18
3/22/1932 12:00,1292.18
3/23/1932 12:00,1292.18
3/24/1932 12:00,1292.19
3/25/1932 12:00,1292.10
3/26/1932 12:00,1292.10
3/27/1932 12:00,1292.11
3/28/1932 12:00,1292.11
3/29/1932 12:00,1292.17
3/30/1932 12:00,1292.20
3/31/1932 12:00,1292.14
4/1/1932 12:00,1292.20
4/2/1932 12:00,1292.24
4/3/1932 12:00,1292.28
4/4/1932 12:00,1292.27
4/5/1932 12:00,1292.34
4/6/1932 12:00,1292.30
4/7/1932 12:00,1292.48
4/8/1932 12:00,1292.48
4/9/1932 12:00,1292.48
4/10/1932 12:00,1292.54
4/11/1932 12:00,1292.56
4/12/1932 12:00,1292.54
4/13/1932 12:00,1292.51
4/14/1932 12:00,1292.52
4/15/1932 12:00,1292.54
4/16/1932 12:00,1292.53
4/17/1932 12:00,1292.52
4/18/1932 12:00,1292.54
4/19/1932 12:00,1292.54
4/20/1932 12:00,1292.52
4/21/1932 12:00,1292.54
4/22/1932 12:00,1292.55
4/23/1932 12:00,1292.47
4/24/1932 12:00,1292.49
4/25/1932 12:00,1292.50
4/26/1932 12:00,1292.55
4/27/1932 12:00,1292.59
4/28/1932 12:00,1292.58
4/29/1932 12:00,1292.52
4/30/1932 12:00,1292.63
5/1/1932 12:00,1292.65
5/2/1932 12:00,1292.62
5/3/1932 12:00,1292.60
5/4/1932 12:00,1292.50
5/5/1932 12:00,1292.50
5/6/1932 12:00,1292.58
5/7/1932 12:00,1292.60
5/8/1932 12:00,1292.77
5/9/1932 12:00,1292.80
5/10/1932 12:00,1292.85
5/11/1932 12:00,1292.86
5/12/1932 12:00,1292.86
5/13/1932 12:00,1292.88
5/14/1932 12:00,1292.89
5/15/1932 12:00,1293.08
5/16/1932 12:00,1293.00
5/17/1932 12:00,1292.97
5/18/1932 12:00,1292.91
5/19/1932 12:00,1292.90
5/20/1932 12:00,1292.82
5/21/1932 12:00,1292.85
5/22/1932 12:00,1292.88
5/23/1932 12:00,1292.90
5/24/1932 12:00,1293.02
5/25/1932 12:00,1292.91
5/26/1932 12:00,1292.69
5/27/1932 12:00,1292.95
5/28/1932 12:00,1293.05
5/29/1932 12:00,1293.06
5/30/1932 12:00,1293.00
5/31/1932 12:00,1292.98
6/1/1932 12:00,1293.09
6/2/1932 12:00,1293.00
6/3/1932 12:00,1293.02
6/4/1932 12:00,1293.03
6/5/1932 12:00,1293.03
6/6/1932 12:00,1293.03
6/7/1932 12:00,1293.00
6/8/1932 12:00,1293.03
6/9/1932 12:00,1293.04
6/10/1932 12:00,1293.04
6/11/1932 12:00,1293.00
6/12/1932 12:00,1293.01
6/13/1932 12:00,1293.07
6/14/1932 12:00,1293.09
6/15/1932 12:00,1293.10
6/16/1932 12:00,1293.08
6/17/1932 12:00,1293.00
6/18/1932 12:00,1293.18
6/19/1932 12:00,1293.05
6/20/1932 12:00,1293.05
6/21/1932 12:00,1293.07
6/22/1932 12:00,1293.00
6/23/1932 12:00,1292.92
6/24/1932 12:00,1292.98
6/25/1932 12:00,1293.02
6/26/1932 12:00,1293.02
6/27/1932 12:00,1293.01
6/28/1932 12:00,1293.03
6/29/1932 12:00,1292.97
6/30/1932 12:00,1293.00
7/1/1932 12:00,1292.98
7/2/1932 12:00,1292.92
7/3/1932 12:00,1292.88
7/4/1932 12:00,1292.89
7/5/1932 12:00,1293.00
7/6/1932 12:00,1293.00
7/7/1932 12:00,1293.00
7/8/1932 12:00,1292.95
7/9/1932 12:00,1292.93
7/10/1932 12:00,1292.98
7/11/1932 12:00,1292.88
7/12/1932 12:00,1292.92
7/13/1932 12:00,1292.90
7/14/1932 12:00,1292.82
7/15/1932 12:00,1292.82
7/16/1932 12:00,1292.91
7/17/1932 12:00,1292.88
7/18/1932 12:00,1292.86
7/19/1932 12:00,1292.85
7/20/1932 12:00,1292.78
7/21/1932 12:00,1292.84
7/22/1932 12:00,1292.78
7/23/1932 12:00,1292.77
7/24/1932 12:00,1292.78
7/25/1932 12:00,1292.75
7/26/1932 12:00,1292.68
7/27/1932 12:00,1292.68
7/28/1932 12:00,1292.63
7/29/1932 12:00,1292.63
7/30/1932 12:00,1292.62
7/31/1932 12:00,1292.72
8/1/1932 12:00,1292.68
8/2/1932 12:00,1292.74
8/3/1932 12:00,1292.73
8/4/1932 12:00,1292.70
8/5/1932 12:00,1292.73
8/6/1932 12:00,1292.63
8/7/1932 12:00,1292.64
8/8/1932 12:00,1292.60
8/9/1932 12:00,1292.56
8/10/1932 12:00,1292.18
8/11/1932 12:00,1292.01
8/12/1932 12:00,1292.00
8/13/1932 12:00,1291.98
8/14/1932 12:00,1291.98
8/15/1932 12:00,1292.21
8/16/1932 12:00,1292.23